Location: Glencoe Junction
(41.7313°N, 110.5602°W)
Time: 11:28:06
(UTC+00:00)

X-37B - Visible Passes

Search period start: 22 January 2022 00:00
Search period end: 01 February 2022 00:00
Orbit: 334 x 337 km, 45.0° (Epoch: 11 January)

Date Brightness Start Highest point End Pass type
(mag) Time Alt. Az. Time Alt. Az. Time Alt. Az.
26 Jan 2.2 02:05:57 10° SSW 02:07:37 22° S 02:07:37 22° S visible
27 Jan 2.1 02:25:50 10° WSW 02:27:26 29° SW 02:27:26 29° SW visible
28 Jan 1.9 01:11:24 10° SSW 01:13:46 24° SSE 01:15:56 11° E visible
28 Jan 3.3 02:46:15 10° W 02:47:10 18° W 02:47:10 18° W visible
29 Jan 0.5 01:31:16 10° SW 01:34:04 59° SSE 01:35:37 23° E visible
30 Jan 0.4 01:51:41 10° W 01:54:30 66° NNW 01:55:16 42° NE visible
31 Jan 1.1 02:12:19 10° W 02:14:53 42° NNW 02:14:53 42° NNW visible
